This is the latest recevied weather packets stored in our database for station/object SR5MRF. If no packets are shown the sender has not sent any weather packets the latest 10 day(s).
| Time | Temp. | Humidity | Pressure | Rain* | Wind** | Luminosity | Snow |
|---|---|---|---|---|---|---|---|
| 1778143837 | 18.89° C | 65% | 1007.5 hPa | 0 mm | - | - | - |
| 1778143718 | 18.89° C | 65% | 1007.6 hPa | 0 mm | - | - | - |
| 1778143417 | 18.89° C | 66% | 1007.5 hPa | 0 mm | - | - | - |
| 1778142997 | 18.89° C | 67% | 1007.3 hPa | 0 mm | - | - | - |
| 1778142577 | 18.33° C | 68% | 1007.3 hPa | 0 mm | - | - | - |
| 1778142157 | 17.78° C | 67% | 1007.2 hPa | 0 mm | - | - | - |
| 1778141738 | 18.33° C | 66% | 1007 hPa | 0 mm | - | - | - |
| 1778141317 | 18.33° C | 66% | 1006.9 hPa | 0 mm | - | - | - |
| 1778140897 | 18.89° C | 66% | 1007.1 hPa | 0 mm | - | - | - |
| 1778140718 | 18.89° C | 66% | 1007 hPa | 0 mm | - | - | - |
| 1778140478 | 18.89° C | 65% | 1006.9 hPa | 0 mm | - | - | - |
| 1778140058 | 18.89° C | 65% | 1006.8 hPa | 0 mm | - | - | - |
| 1778139638 | 18.89° C | 66% | 1006.8 hPa | 0 mm | - | - | - |
| 1778139518 | 18.89° C | 66% | 1006.7 hPa | 0 mm | - | - | - |
| 1778139218 | 18.89° C | 66% | 1006.6 hPa | 0 mm | - | - | - |
| 1778138797 | 18.89° C | 66% | 1006.5 hPa | 0 mm | - | - | - |
| 1778138377 | 18.89° C | 67% | 1006.3 hPa | 0 mm | - | - | - |
| 1778138319 | 18.89° C | 67% | 1006.2 hPa | 0 mm | - | - | - |
| 1778137958 | 19.44° C | 66% | 1006.3 hPa | 0 mm | - | - | - |
| 1778137718 | 19.44° C | 66% | 1006.3 hPa | 0 mm | - | - | - |
| 1778137537 | 19.44° C | 66% | 1006.2 hPa | 0 mm | - | - | - |
| 1778137118 | 19.44° C | 67% | 1006.3 hPa | 0 mm | - | - | - |
| 1778136698 | 19.44° C | 69% | 1006.1 hPa | 0 mm | - | - | - |
| 1778136518 | 18.89° C | 71% | 1006 hPa | 0 mm | - | - | - |
| 1778136278 | 18.33° C | 71% | 1005.9 hPa | 0 mm | - | - | - |
* Rain latest hour (hover to see other rain measurements)
** Current wind speed in m/s (hover to see current wind gust speed)